ONEWEB-0530, 55796

Orbit data source: Space-Track

ONEWEB-0530, 55796 is a payload satellite owned by One Web (NAA) (UK) in LEO that was launched on Thu, 09 Mar 2023 UTC via an FALCON 9 launch vehicle from the Air Force Eastern Test Range (AFETR). Payload-class satellites include a variety of spacecraft equipped with specific instruments for various scientific and technological missions. These include communications satellites like Starlink; space stations such as the ISS; scientific satellites like the Hubble; Earth observation satellites from companies like Planet Labs, Umbra, and HawkEye 360; GPS; miniature CubeSats for education and research; and military/defense satellites.

Loading next visibility...
Identifier
55796, 2023-029A
Orbit
LEO
Country
Flag of UKUK
Related business
Manufacturer
One Web
Mission
Operational Commercial Communications
Bus & Motor
ARROW, Unknown motor
Mass
148 kg wet, ~140 kg dry
Launch date (UTC)
2023-03-09 (3 years ago)
Launch vehicle
FALCON 9
Launch site
Air Force Eastern Test Range (AFETR)
Object type
Payload
Rocket body
Debris
Shape & HBR
Trap Box + 2 Pan, 6.7 m
Radar Cross Section
3.464 m², Large (>1 m²)

Expand to show TLE details & history
Last TLE update: 2 days ago

TLE from 2 days ago
0 ONEWEB-0530
1 55796U 23029A   26171.27172095  .00000029  00000-0  38421-4 0  9991
2 55796  87.9186 273.8540 0002274  90.3463 269.7931 13.20771595161557
Epoch: 2026-06-20T06:31Z
TLE epoch observation values (Epoch: 2026-06-20T06:31:16.690Z)
Latitude
0.00001°
Longitude
-92.45427°
Altitude
1,184.684 km
Speed
7.261 km/s
True Right ascension
18h 15m 24s
True Declination
0° 00' 00"
Sunlit
Object was in full shadow at epoch
Visualization orbit readout
Latitude
Unknown
Longitude
Unknown
Altitude
Unknown
Speed
Unknown
Apparent Right ascension
Unknown
Apparent Declination
Unknown
Sunlit
N/A
Visualization observer readout
Local Sidereal Time
02:13:23
Azimuth
Unknown
Elevation
Unknown
Doppler factor
Unknown
Orbital elements
Apogee altitude
1,180.597 km
Perigee altitude
1,177.16 km
Semi-major axis
7,557.015 km
Eccentricity
0.00023
Inclination
87.9186°
RAAN
273.854°
Arg. of periapsis
90.3463°
True anomaly
269.76704°
Mean anomaly
269.7931°
Eccentric anomaly
269.78007°
Mean motion
3.30383 °/min
Orbital period
108.96 mins
BSTAR
0.000038421
Loading maneuver chart data...
Computing Atmospheric mass density...
Loading historical data...
Loading historical data...
Loading historical data...
Loading historical data...
Loading historical data...
Loading historical data...
Loading historical data...

Documentation

Showing up to 5 results
|